User: anonymous   Login
Location: Unspecified
(0.0000°N, 0.0000°E)
Time: 09:13:55
(UTC+00:00)
Language:

USA-159 - Orbit

View from above orbital plane
View from above orbital plane
View from above satellite
View from above satellite

Ground track
Ground track

The orbit data is extracted from the following two-line orbital elements,

1 26880U 01033A   20047.79982253 -.00000310  00000-0  00000+0 0  9993
2 26880  10.6552  31.1680 0001559 355.6227 358.2816  1.00274976  8427
Epoch (UTC): 16 February 2020 19:11:44
Eccentricity: 0.0001559
inclination: 10.6552°
perigee height: 35779 km
apogee height: 35792 km
right ascension of ascending node: 31.1680°
argument of perigee: 355.6227°
revolutions per day: 1.00274976
mean anomaly at epoch: 358.2816°
orbit number at epoch: 842

The dashed part of the orbit path shows where the satellite is in the earth's shadow,  

DLR